STARLINK-32846, 62867

Orbit data source: Space-Track

STARLINK-32846, 62867 is a payload satellite owned by SpaceX/Seattle (US) in LEO that was launched on Sat, 01 Feb 2025 UTC via an FALCON 9 launch vehicle from the Air Force Western Test Range (AFWTR). Payload-class satellites include a variety of spacecraft equipped with specific instruments for various scientific and technological missions. These include communications satellites like Starlink; space stations such as the ISS; scientific satellites like the Hubble; Earth observation satellites from companies like Planet Labs, Umbra, and HawkEye 360; GPS; miniature CubeSats for education and research; and military/defense satellites.

Loading next visibility...
Identifier
62867, 2025-022P
Orbit
LEO
Country
Flag of USUS
Related business
Manufacturer
SpaceX/Seattle
Mission
Operational Commercial Communications
Bus & Motor
STARLINK V2M, Unknown motor
Mass
730 kg wet, ~700 kg dry
Launch date (UTC)
2025-02-01 (1 year ago)
Launch vehicle
FALCON 9
Launch site
Air Force Western Test Range (AFWTR)
Object type
Payload
Rocket body
Debris
Shape & HBR
Box + 2 Pan, 17.7 m
Radar Cross Section
33.884 m², Large (>1 m²)

Expand to show TLE details & history
Last TLE update: 11 hours ago

TLE from 11 hours ago
0 STARLINK-32846
1 62867U 25022P   26126.63829750  .00021778  00000-0  74519-3 0  9991
2 62867  53.1583 220.3407 0001793  74.1782 285.9416 15.30202270 70771
Epoch: 2026-05-06T15:19Z
TLE epoch observation values (Epoch: 2026-05-06T15:19:08.903Z)
Latitude
-0.00002°
Longitude
126.05767°
Altitude
475.771 km
Speed
7.629 km/s
True Right ascension
14h 41m 21s
True Declination
0° 00' 00"
Sunlit
Object was in full shadow at epoch
Visualization orbit readout
Latitude
Unknown
Longitude
Unknown
Altitude
Unknown
Speed
Unknown
Apparent Right ascension
Unknown
Apparent Declination
Unknown
Sunlit
N/A
Visualization observer readout
Local Sidereal Time
10:48:07
Azimuth
Unknown
Elevation
Unknown
Doppler factor
Unknown
Orbital elements
Apogee altitude
476.694 km
Perigee altitude
474.236 km
Semi-major axis
6,853.602 km
Eccentricity
0.00018
Inclination
53.1583°
RAAN
220.3407°
Arg. of periapsis
74.1782°
True anomaly
285.92184°
Mean anomaly
285.9416°
Eccentric anomaly
285.93172°
Mean motion
3.82529 °/min
Orbital period
94.11 mins
BSTAR
0.00074519
Loading maneuver chart data...
Computing Atmospheric mass density...
Loading historical data...
Loading historical data...
Loading historical data...
Loading historical data...
Loading historical data...
Loading historical data...
Loading historical data...

Documentation

Showing up to 5 results
|